Overview Statistics Trail Chart Weather Telemetry Raw packets
 

This is the latest recevied weather packets stored in our database for station/object DJ2KUA-6. If no packets are shown the sender has not sent any weather packets the latest 10 day(s).

<< 21 22 23 24 25 26 27 >>
Time Temp. Humidity Pressure Rain* Wind** Luminosity Snow
1787933198 25° C 62% 1064 hPa 0 mm - - -
1787932057 26.11° C 67% 1064 hPa 0 mm - - -
1787930916 26.67° C 71% 1064 hPa 0 mm - - -
1787929776 26.11° C 73% 1064 hPa 0.51 mm - - -
1787928637 24.44° C 76% 1064 hPa 0.51 mm - - -
1787927497 25.56° C 70% 1064 hPa 0.51 mm - - -
1787926355 27.78° C 60% 1064 hPa 0 mm - - -
1787925217 27.78° C 62% 1064 hPa 0 mm - - -
1787924076 27.78° C 64% 1064 hPa 0 mm - - -
1787922937 27.78° C 65% 1064 hPa 0.51 mm - - -
1787921797 26.67° C 66% 1064 hPa 0.51 mm - - -
1787920658 26.67° C 70% 1064 hPa 0.51 mm - - -
1787918377 26.11° C 73% 1064 hPa 0 mm - - -
1787917237 26.11° C 74% 1064 hPa 0 mm - - -
1787914957 25.56° C 80% 1064 hPa 0 mm - - -
1787913816 25.56° C 80% 1064 hPa 0 mm - - -
1787912678 25° C 84% 1064 hPa 0 mm - - -
1787911536 24.44° C 86% 1063 hPa 0 mm - - -
1787910400 22.22° C 85% 1063 hPa 0 mm - - -
1787910397 22.22° C 85% 1063 hPa 0 mm - - -
1787909257 21.11° C 86% 1063 hPa 1.52 mm - - -
1787908118 21.11° C 86% 1063 hPa 1.52 mm - - -
1787906979 21.11° C 86% 1064 hPa 1.52 mm - - -
1787904740 23.33° C 84% 1063 hPa 0 mm - - -
1787904698 23.33° C 84% 1063 hPa 0 mm - - -

* Rain latest hour (hover to see other rain measurements)
** Current wind speed in m/s (hover to see current wind gust speed)